"Pseudo-MPEC" for P20JDBp

Created 2018 Oct 12 19:18:06 UT using Find_Orb

Click here for an explanation of pseudo-MPECs

 
 Astrometry: 
     P20JDBp  C2018 10 05\qAstrometry2E7VEIsVB6V:$ed./YJmB`/\V\-h\xD[Gr7C.n]fF52
     P20JDBp  C2018 10 05Yt[eT_XvEY`3v\o)%redacted;+'#f(usee$K)LbJ_dD@ORYbO$AF52
     P20JDBp  C2018 10 055^.1uWncO#O1y-6\Yx,c+8l]qT2PO!4]fco4cX=A-NtodVNNEOCPF52

Station data:
(F52) Pan-STARRS 2, Haleakala  (N20.707384 W156.255910)  US/Hawaii.

Orbital elements:  P20JDBp
   Perihelion 2018 Nov 7.918602 +/- 49.6 TT = 22:02:47 (JD 2458430.418602)
Epoch 2018 Oct  5.0 TT = JDT 2458396.5   Earth MOID: 0.3974   Ma: 0.0076
M 350.83200 +/- 15                  (J2000 ecliptic)          AutoNEOCP
n   0.27029402 +/- 0.241            Peri.  326.96825 +/- 80
a   2.36907287 +/- 1.41             Node    68.89605 +/- 46
e   0.4142549 +/- 0.243             Incl.    4.41118 +/- 2.0
P   3.65                   H 22.7   G  0.15   U 11.8  SR
q 1.38767278 +/- 0.463    Q 3.35047296 +/- 116
From 3 observations 2018 Oct. 5 (43.9 min); mean residual 0".12
Residuals in arcseconds: 
181005 F52  .11+  .04+    181005 F52  .23-  .09-    181005 F52  .11+  .05+    

Ephemerides (geocentric):
Date (UTC) HH   RA              Dec         delta   r     elong  mag " sig PA
---- -- -- --  -------------   -----------  ------ ------ -----  --- ---- ---
2018 10 12 19  01 06 36.326   -05 34 49.38  .41886 1.4091 166.9 22.2  35d   2
2018 10 12 20  01 06 35.678   -05 34 36.82  .41883 1.4090 166.9 22.2  35d   1
2018 10 12 21  01 06 35.030   -05 34 24.21  .41879 1.4090 166.9 22.2  35d   1
2018 10 12 22  01 06 34.382   -05 34 11.57  .41875 1.4089 166.8 22.2  35d   1
2018 10 12 23  01 06 33.734   -05 33 58.89  .41871 1.4088 166.8 22.2  35d   0
2018 10 13 00  01 06 33.087   -05 33 46.16  .41868 1.4088 166.8 22.2  36d 179
2018 10 13 01  01 06 32.439   -05 33 33.40  .41864 1.4087 166.8 22.2  38d 178
2018 10 13 02  01 06 31.792   -05 33 20.60  .41860 1.4086 166.8 22.2  38d 179
2018 10 13 03  01 06 31.146   -05 33 07.76  .41857 1.4086 166.8 22.2  38d 179
2018 10 13 04  01 06 30.499   -05 32 54.87  .41853 1.4085 166.7 22.2  39d 179
2018 10 13 05  01 06 29.853   -05 32 41.95  .41850 1.4084 166.7 22.2  39d   0
2018 10 13 06  01 06 29.206   -05 32 28.99  .41846 1.4084 166.7 22.2  39d   0
2018 10 13 07  01 06 28.561   -05 32 15.98  .41843 1.4083 166.7 22.2  39d   0
2018 10 13 08  01 06 27.915   -05 32 02.94  .41839 1.4082 166.7 22.2  39d   0
2018 10 13 09  01 06 27.269   -05 31 49.86  .41836 1.4082 166.7 22.2  39d   0
2018 10 13 10  01 06 26.624   -05 31 36.73  .41832 1.4081 166.6 22.2  39d   0
2018 10 13 11  01 06 25.980   -05 31 23.57  .41829 1.4080 166.6 22.2  39d   2
2018 10 13 12  01 06 25.335   -05 31 10.37  .41826 1.4080 166.6 22.2  39d   2
2018 10 13 13  01 06 24.691   -05 30 57.12  .41822 1.4079 166.6 22.2  39d   2
2018 10 13 14  01 06 24.047   -05 30 43.84  .41819 1.4078 166.6 22.2  39d   2
2018 10 13 15  01 06 23.403   -05 30 30.51  .41816 1.4078 166.6 22.2  39d   2
2018 10 13 16  01 06 22.760   -05 30 17.14  .41812 1.4077 166.5 22.2  39d   2
2018 10 13 17  01 06 22.117   -05 30 03.74  .41809 1.4076 166.5 22.2  39d   2
2018 10 13 18  01 06 21.474   -05 29 50.29  .41806 1.4076 166.5 22.2  39d   2
2018 10 13 19  01 06 20.832   -05 29 36.80  .41803 1.4075 166.5 22.2  39d   2
2018 10 13 20  01 06 20.190   -05 29 23.28  .41800 1.4074 166.5 22.2  39d   2
2018 10 13 21  01 06 19.549   -05 29 09.71  .41796 1.4074 166.5 22.2  39d   2
2018 10 13 22  01 06 18.908   -05 28 56.10  .41793 1.4073 166.4 22.2  39d   2
2018 10 13 23  01 06 18.267   -05 28 42.45  .41790 1.4073 166.4 22.2  39d   2
2018 10 14 00  01 06 17.627   -05 28 28.76  .41787 1.4072 166.4 22.2  39d   2
2018 10 14 01  01 06 16.987   -05 28 15.03  .41784 1.4071 166.4 22.2  39d   2
2018 10 14 02  01 06 16.347   -05 28 01.26  .41781 1.4071 166.4 22.2  39d   2
2018 10 14 03  01 06 15.708   -05 27 47.45  .41778 1.4070 166.3 22.2  39d   2
2018 10 14 04  01 06 15.070   -05 27 33.60  .41775 1.4069 166.3 22.2  39d   2
2018 10 14 05  01 06 14.431   -05 27 19.70  .41772 1.4069 166.3 22.2  39d   2
2018 10 14 06  01 06 13.794   -05 27 05.77  .41769 1.4068 166.3 22.2  39d   2
2018 10 14 07  01 06 13.156   -05 26 51.79  .41766 1.4067 166.3 22.2  39d   2
2018 10 14 08  01 06 12.520   -05 26 37.78  .41763 1.4067 166.2 22.2  39d   2
2018 10 14 09  01 06 11.883   -05 26 23.72  .41761 1.4066 166.2 22.2  39d   2
2018 10 14 10  01 06 11.247   -05 26 09.63  .41758 1.4066 166.2 22.2  39d   2
2018 10 14 11  01 06 10.612   -05 25 55.49  .41755 1.4065 166.2 22.2  39d   2
2018 10 14 12  01 06 09.977   -05 25 41.31  .41752 1.4064 166.2 22.2  39d   2
2018 10 14 13  01 06 09.343   -05 25 27.09  .41749 1.4064 166.2 22.2  39d   2
2018 10 14 14  01 06 08.709   -05 25 12.83  .41747 1.4063 166.1 22.2  39d   2
2018 10 14 15  01 06 08.076   -05 24 58.53  .41744 1.4062 166.1 22.2  39d   2
2018 10 14 16  01 06 07.443   -05 24 44.19  .41741 1.4062 166.1 22.2  39d   2
2018 10 14 17  01 06 06.811   -05 24 29.80  .41739 1.4061 166.1 22.2  39d   2
2018 10 14 18  01 06 06.179   -05 24 15.38  .41736 1.4060 166.1 22.2  39d   2